Weather History for KMRT - November, 2013

Change the Weather History Date:

Thursday, November 28, 2013

  Actual Average (KDLZ) Record (KDLZ)
Temperature  
Mean Temperature 24 °F -  
Max Temperature 29 °F 47 °F 66 °F (1984)
Min Temperature 20 °F 32 °F 6 °F (1955)
Degree Days  
Heating Degree Days 40    
Moisture  
Dew Point 18 °F    
Average Humidity 71    
Maximum Humidity 85    
Minimum Humidity 60    
Precipitation  
Precipitation 0.00 in - - ()
Sea Level Pressure  
Sea Level Pressure 30.31 in    
Wind  
Wind Speed 7 mph (SW)    
Max Wind Speed 17 mph    
Max Gust Speed 22 mph    
Visibility 10 miles    
Events      
Averages and records for this station are not official NWS values.
T = Trace of Precipitation, MM = Missing Value Source: NWS Daily Summary

Daily Weather History Graph

Daily Weather History Graph

Search for Another Location

Airport or City:

Trip Planner

Search our weather history database for the weather conditions in past years. The results will help you decide how hot, cold, wet, or windy it might be!

Date:

Astronomy

Nov. 28, 2013 Rise Set
Actual Time 7:33 AM EST 5:08 PM EST
Civil Twilight 7:03 AM EST 5:38 PM EST
Nautical Twilight 6:30 AM EST 6:12 PM EST
Astronomical Twilight 5:57 AM EST 6:45 PM EST
Moon 2:34 AM EST 2:18 PM EST
Length of Visible Light 10h 35m
Length of Day
9h 35m
Waning Crescent, 22% of the Moon is Illuminated
Nov 28
Waning Crescent
Dec 2
New
Dec 9
First Quarter
Dec 17
Full
Dec 25
Last Quarter

Hourly Weather History & Observations

Time (EST) Temp. Windchill Dew Point Humidity Pressure Visibility Wind Dir Wind Speed Gust Speed Precip Events Conditions
12:14 AM 23.9 °F 15.8 °F 19.4 °F 83% 30.22 in 10.0 mi WNW 6.9 mph - N/A   Mostly Cloudy
12:35 AM 23.4 °F 16.2 °F 19.4 °F 85% 30.22 in 10.0 mi WNW 5.8 mph - N/A   Overcast
12:54 AM 24.3 °F 18.4 °F 19.4 °F 82% 30.22 in 10.0 mi NW 4.6 mph - N/A   Overcast
1:14 AM 23.7 °F 16.6 °F 18.0 °F 79% 30.22 in 10.0 mi WNW 5.8 mph - N/A   Scattered Clouds
1:34 AM 24.3 °F 18.4 °F 18.9 °F 80% 30.23 in 10.0 mi WNW 4.6 mph - N/A   Mostly Cloudy
1:54 AM 23.5 °F 15.4 °F 18.0 °F 79% 30.23 in 10.0 mi West 6.9 mph - N/A   Overcast
2:14 AM 22.5 °F 15.1 °F 17.6 °F 82% 30.24 in 10.0 mi West 5.8 mph - N/A   Scattered Clouds
2:34 AM 22.1 °F 14.7 °F 17.4 °F 82% 30.25 in 10.0 mi West 5.8 mph - N/A   Mostly Cloudy
2:54 AM 22.1 °F 14.7 °F 17.4 °F 82% 30.25 in 10.0 mi West 5.8 mph - N/A   Mostly Cloudy
3:14 AM 22.6 °F 15.3 °F 18.0 °F 82% 30.25 in 10.0 mi West 5.8 mph - N/A   Scattered Clouds
3:34 AM 22.8 °F 15.5 °F 18.0 °F 82% 30.25 in 10.0 mi West 5.8 mph - N/A   Scattered Clouds
3:55 AM 22.8 °F 14.5 °F 17.8 °F 81% 30.26 in 10.0 mi West 6.9 mph - N/A   Mostly Cloudy
4:14 AM 22.8 °F 14.5 °F 17.6 °F 80% 30.27 in 10.0 mi West 6.9 mph - N/A   Scattered Clouds
4:34 AM 23.0 °F 15.8 °F 17.8 °F 80% 30.27 in 10.0 mi West 5.8 mph - N/A   Mostly Cloudy
4:55 AM 21.7 °F 13.2 °F 16.3 °F 80% 30.27 in 10.0 mi West 6.9 mph - N/A   Scattered Clouds
5:14 AM 20.8 °F 13.2 °F 16.0 °F 81% 30.28 in 10.0 mi West 5.8 mph - N/A   Clear
5:34 AM 22.1 °F 14.7 °F 17.1 °F 81% 30.29 in 10.0 mi West 5.8 mph - N/A   Scattered Clouds
5:54 AM 22.1 °F 14.7 °F 17.4 °F 82% 30.30 in 10.0 mi WSW 5.8 mph - N/A   Mostly Cloudy
6:14 AM 22.6 °F 15.3 °F 17.2 °F 80% 30.30 in 10.0 mi WSW 5.8 mph - N/A   Overcast
6:34 AM 22.8 °F 16.7 °F 17.4 °F 80% 30.31 in 10.0 mi SW 4.6 mph - N/A   Overcast
6:54 AM 22.6 °F 15.3 °F 17.6 °F 81% 30.32 in 10.0 mi SW 5.8 mph - N/A   Overcast
7:14 AM 22.6 °F 16.5 °F 17.6 °F 81% 30.33 in 10.0 mi SW 4.6 mph - N/A   Overcast
7:34 AM 23.0 °F 17.0 °F 17.6 °F 80% 30.34 in 10.0 mi SW 4.6 mph - N/A   Overcast
7:54 AM 23.0 °F 15.8 °F 17.2 °F 79% 30.35 in 10.0 mi SW 5.8 mph - N/A   Overcast
8:14 AM 23.4 °F 15.2 °F 16.7 °F 76% 30.35 in 10.0 mi WSW 6.9 mph - N/A   Overcast
8:34 AM 23.7 °F 17.8 °F 16.7 °F 75% 30.35 in 10.0 mi WSW 4.6 mph - N/A   Overcast
8:54 AM 23.9 °F 15.0 °F 16.5 °F 73% 30.35 in 10.0 mi SW 8.1 mph - N/A   Overcast
9:14 AM 23.9 °F 15.8 °F 16.7 °F 74% 30.36 in 10.0 mi SW 6.9 mph - N/A   Overcast
9:34 AM 24.3 °F 17.3 °F 16.9 °F 73% 30.36 in 10.0 mi SW 5.8 mph - N/A   Overcast
9:54 AM 24.8 °F 17.9 °F 17.2 °F 73% 30.36 in 10.0 mi SSW 5.8 mph - N/A   Overcast
10:14 AM 25.0 °F 16.3 °F 17.4 °F 73% 30.36 in 10.0 mi SSW 8.1 mph - N/A   Overcast
10:35 AM 25.3 °F 16.7 °F 17.1 °F 71% 30.36 in 10.0 mi SSW 8.1 mph - N/A   Overcast
10:54 AM 25.3 °F 16.0 °F 17.1 °F 71% 30.35 in 10.0 mi SSW 9.2 mph - N/A   Overcast
11:14 AM 25.5 °F 15.5 °F 16.7 °F 69% 30.34 in 10.0 mi SSW 10.4 mph - N/A   Overcast
11:34 AM 25.7 °F 15.7 °F 16.3 °F 68% 30.33 in 10.0 mi SSW 10.4 mph - N/A   Overcast
11:54 AM 26.2 °F 15.2 °F 16.2 °F 66% 30.32 in 10.0 mi SSW 12.7 mph - N/A   Overcast
12:15 PM 26.6 °F 15.2 °F 16.2 °F 65% 30.30 in 10.0 mi SSW 13.8 mph 17.3 mph N/A   Overcast
12:34 PM 27.0 °F 15.6 °F 15.6 °F 62% 30.29 in 10.0 mi SSW 13.8 mph 20.7 mph N/A   Overcast
12:54 PM 26.6 °F 14.7 °F 16.0 °F 64% 30.29 in 10.0 mi SSW 15.0 mph 21.9 mph N/A   Overcast
1:15 PM 27.3 °F 14.8 °F 15.4 °F 61% 30.28 in 10.0 mi SSW 17.3 mph 21.9 mph N/A   Overcast
1:34 PM 27.5 °F 17.4 °F 15.8 °F 61% 30.27 in 10.0 mi SSW 11.5 mph - N/A   Overcast
1:54 PM 27.1 °F 15.9 °F 14.9 °F 60% 30.27 in 10.0 mi SSW 13.8 mph - N/A   Overcast
2:15 PM 27.3 °F 17.1 °F 15.8 °F 62% 30.26 in 10.0 mi SSW 11.5 mph - N/A   Overcast
2:34 PM 27.1 °F 15.9 °F 14.9 °F 60% 30.26 in 10.0 mi SSW 13.8 mph 19.6 mph N/A   Overcast
2:54 PM 27.3 °F 15.6 °F 15.3 °F 61% 30.26 in 10.0 mi SSW 15.0 mph - N/A   Overcast
3:14 PM 27.5 °F 15.4 °F 15.1 °F 60% 30.26 in 10.0 mi SW 16.1 mph 21.9 mph N/A   Overcast
3:34 PM 27.9 °F 16.8 °F 15.8 °F 61% 30.27 in 10.0 mi SW 13.8 mph 17.3 mph N/A   Overcast
3:54 PM 28.0 °F 18.1 °F 16.3 °F 62% 30.28 in 10.0 mi SW 11.5 mph - N/A   Overcast
4:14 PM 28.2 °F 17.2 °F 16.0 °F 60% 30.28 in 10.0 mi SW 13.8 mph - N/A   Overcast
4:35 PM 28.0 °F 18.6 °F 15.8 °F 60% 30.28 in 10.0 mi SSW 10.4 mph - N/A   Overcast
4:54 PM 28.2 °F 19.5 °F 16.7 °F 62% 30.28 in 10.0 mi SSW 9.2 mph - N/A   Overcast
5:14 PM 28.2 °F 20.2 °F 17.1 °F 63% 30.29 in 10.0 mi SSW 8.1 mph - N/A   Overcast
5:35 PM 28.4 °F 21.2 °F 17.2 °F 63% 30.30 in 10.0 mi SW 6.9 mph - N/A   Overcast
5:54 PM 28.8 °F 20.9 °F 17.8 °F 64% 30.32 in 10.0 mi SW 8.1 mph - N/A   Overcast
6:14 PM 28.8 °F 20.9 °F 18.1 °F 65% 30.33 in 10.0 mi SW 8.1 mph - N/A   Overcast
6:35 PM 28.8 °F 21.7 °F 18.3 °F 65% 30.34 in 10.0 mi SW 6.9 mph - N/A   Overcast
6:54 PM 28.9 °F 21.9 °F 18.5 °F 65% 30.35 in 10.0 mi SW 6.9 mph - N/A   Overcast
7:14 PM 28.9 °F 21.9 °F 19.0 °F 67% 30.35 in 10.0 mi SW 6.9 mph - N/A   Overcast
7:35 PM 29.1 °F 21.3 °F 19.2 °F 67% 30.35 in 10.0 mi SW 8.1 mph - N/A   Overcast
7:54 PM 29.1 °F 22.1 °F 19.2 °F 67% 30.36 in 10.0 mi SW 6.9 mph - N/A   Overcast
8:14 PM 29.1 °F 21.3 °F 19.4 °F 67% 30.36 in 10.0 mi SW 8.1 mph - N/A   Overcast
8:35 PM 28.9 °F 22.8 °F 19.6 °F 68% 30.37 in 10.0 mi SW 5.8 mph - N/A   Overcast
8:54 PM 28.9 °F 22.8 °F 19.4 °F 68% 30.37 in 10.0 mi SW 5.8 mph - N/A   Overcast
9:14 PM 28.8 °F 21.7 °F 19.4 °F 68% 30.37 in 10.0 mi SW 6.9 mph - N/A   Overcast
9:35 PM 28.8 °F 22.6 °F 19.4 °F 68% 30.37 in 10.0 mi SW 5.8 mph - N/A   Overcast
9:54 PM 28.8 °F 22.6 °F 19.4 °F 68% 30.38 in 10.0 mi SW 5.8 mph - N/A   Overcast
10:14 PM 28.8 °F 22.6 °F 19.4 °F 68% 30.38 in 10.0 mi SW 5.8 mph - N/A   Overcast
10:35 PM 28.8 °F 22.6 °F 19.4 °F 68% 30.38 in 10.0 mi SW 5.8 mph - N/A   Overcast
10:54 PM 28.6 °F 22.4 °F 19.4 °F 69% 30.39 in 10.0 mi SW 5.8 mph - N/A   Overcast
11:15 PM 28.8 °F 21.7 °F 19.4 °F 68% 30.39 in 10.0 mi SW 6.9 mph - N/A   Overcast
11:34 PM 28.4 °F 21.2 °F 19.8 °F 70% 30.40 in 10.0 mi SW 6.9 mph - N/A   Overcast
11:54 PM 28.4 °F 22.2 °F 19.8 °F 70% 30.40 in 10.0 mi SW 5.8 mph - N/A   Overcast